Shun Cheng — BBUL — position and weather

sailwx.info

Track history (hours):
 
Tides and Currents Weather Stations Pressure Air Temp Water Temp Dewpoint Dewpoint Depression Visibility Wind Speed Wind Dir Waves Ship Positions

Shun Cheng

Last reported at 2014-Oct-19 18:12 UTC. Time now 2014-Oct-22 01:34 UTC.
Position N 35°03' E 139°37'.

Length 128 m; draft 6.8 m.

Type: Cargo ship. MMSI: 412949000.

Date/timePositionNaut miles runAvg speedWind from/ knotsBaromVisibWave heightAir tempDewpointWater temp
2014-Oct-19 18:12N 35°03' E 139°37'914.2
2014-Oct-19 17:33N 35°10' E 139°45'1212.3
2014-Oct-19 16:33N 35°22' E 139°42'1212.3
2014-Oct-19 15:33N 35°32' E 139°51'7 6.8
2014-Oct-19 14:33N 35°37' E 139°46'0 0.0
2014-Oct-19 13:23N 35°37' E 139°46'0 0.0
2014-Oct-19 12:26N 35°37' E 139°46'0 0.0
2014-Oct-19 11:10N 35°37' E 139°46'0 0.0
2014-Oct-19 10:22N 35°37' E 139°46'0 0.0
2014-Oct-19 09:28N 35°37' E 139°46'0 0.0
2014-Oct-19 08:31N 35°37' E 139°46'0 0.0
2014-Oct-19 07:19N 35°37' E 139°46'3 3.1
2014-Oct-19 06:24N 35°35' E 139°48'8 9.2
2014-Oct-19 05:33N 35°28' E 139°50'8 7.5
2014-Oct-19 04:31N 35°27' E 139°40'0 0.0
2014-Oct-19 03:31N 35°27' E 139°40'0 0.0
2014-Oct-19 02:31N 35°27' E 139°40'0 0.0
2014-Oct-19 01:28N 35°27' E 139°40'0 0.0
2014-Oct-19 00:31N 35°27' E 139°40'0 0.0
2014-Oct-18 23:31N 35°27' E 139°40'2 2.3
2014-Oct-18 22:33N 35°26' E 139°43'8 8.1
2014-Oct-18 21:33N 35°18' E 139°45'9 9.2
2014-Oct-18 20:33N 35°09' E 139°46'246 6.8
2014-Oct-17 08:30N 34°03' E 134°59'1313.0
2014-Oct-17 07:31N 34°16' E 134°58'1112.0
2014-Oct-17 06:33N 34°26' E 135°06'1313.0
2014-Oct-17 05:33N 34°35' E 135°16'5 4.4
2014-Oct-17 04:30N 34°40' E 135°14'0 0.0
2014-Oct-17 03:30N 34°40' E 135°14'0 0.0
2014-Oct-17 02:30N 34°40' E 135°14'0 0.0
2014-Oct-17 01:30N 34°40' E 135°14'0 0.0
2014-Oct-17 00:30N 34°40' E 135°14'0 0.0
2014-Oct-16 23:23N 34°40' E 135°14'0 0.3
2014-Oct-16 22:33N 34°40' E 135°14'3 2.4
2014-Oct-16 21:28N 34°37' E 135°15'0 0.0
2014-Oct-16 20:31N 34°37' E 135°15'0 0.0
2014-Oct-16 19:31N 34°37' E 135°15'0 0.1
2014-Oct-16 18:28N 34°37' E 135°15'0 0.0
2014-Oct-16 17:28N 34°37' E 135°15'3 3.4
2014-Oct-16 16:33N 34°37' E 135°19'6 5.5
2014-Oct-16 15:30N 34°39' E 135°26'0 0.0
2014-Oct-16 14:24N 34°39' E 135°26'0 0.0
2014-Oct-16 13:33N 34°39' E 135°26'3 3.2
2014-Oct-16 12:33N 34°38' E 135°22'1211.6
2014-Oct-16 11:33N 34°30' E 135°12'1312.5
2014-Oct-16 10:31N 34°21' E 135°01'1212.2
2014-Oct-16 09:33N 34°09' E 134°59'1313.1
2014-Oct-16 08:32N 33°56' E 134°59'  
2014-Oct-14 00:32N 31°20' E 121°42'1111.6
2014-Oct-13 23:33N 31°25' E 121°30'1212.1
2014-Oct-13 22:33N 31°33' E 121°20'1413.7
2014-Oct-13 21:32N 31°42' E 121°08'1010.7
2014-Oct-13 20:34N 31°47' E 120°57'1211.9
2014-Oct-13 19:33N 31°58' E 120°51'0 0.2
2014-Oct-13 18:33N 31°58' E 120°52'0 0.0
2014-Oct-13 17:33N 31°58' E 120°52'0 0.0
2014-Oct-13 16:24N 31°58' E 120°52'0 0.0
2014-Oct-13 15:33N 31°58' E 120°52'0 0.0
2014-Oct-13 14:30N 31°58' E 120°52'0 0.0
2014-Oct-13 13:33N 31°58' E 120°52'0 0.0
2014-Oct-13 12:15N 31°58' E 120°52'0 0.0
2014-Oct-13 11:32N 31°58' E 120°52'0 0.1
2014-Oct-13 10:32N 31°58' E 120°52'3 2.9
2014-Oct-13 09:32N 31°55' E 120°53'0 0.1
2014-Oct-13 08:32N 31°55' E 120°53'0 0.1
2014-Oct-13 07:24N 31°55' E 120°53'0 0.1
2014-Oct-13 06:33N 31°55' E 120°53'4 4.1
2014-Oct-13 05:33N 31°59' E 120°50'1111.1
2014-Oct-13 04:33N 31°60' E 120°37'9 8.6
2014-Oct-13 03:33N 31°60' E 120°27'2 2.4
2014-Oct-13 02:32N 31°58' E 120°25'0 0.0
2014-Oct-13 01:32N 31°58' E 120°25'0 0.0
2014-Oct-13 00:32N 31°58' E 120°25'0 0.0
2014-Oct-12 23:32N 31°58' E 120°25'0 0.0
2014-Oct-12 22:32N 31°58' E 120°25'0 0.0
2014-Oct-12 21:32N 31°58' E 120°25'0 0.0
2014-Oct-12 20:31N 31°58' E 120°25'0 0.0
2014-Oct-12 19:31N 31°58' E 120°25'0 0.0
2014-Oct-12 18:31N 31°58' E 120°25'0 0.0
2014-Oct-12 17:31N 31°58' E 120°25'0 0.0
2014-Oct-12 16:31N 31°58' E 120°25'0 0.0
2014-Oct-12 15:31N 31°58' E 120°25'0 0.0
2014-Oct-12 14:31N 31°58' E 120°25'0 0.0
2014-Oct-12 13:31N 31°58' E 120°25'0 0.0
2014-Oct-12 12:32N 31°58' E 120°25'0 0.2
2014-Oct-12 11:33N 31°58' E 120°25'8 7.7
2014-Oct-12 10:33N 31°57' E 120°16'10 9.7
2014-Oct-12 09:33N 31°57' E 120°04'1211.6
2014-Oct-12 08:33N 32°06' E 119°55'11 0.4
2014-Oct-11 00:28N 32°16' E 119°52'1010.6
2014-Oct-10 23:33N 32°07' E 119°55'9 9.0
2014-Oct-10 22:33N 31°59' E 119°60'1211.9
2014-Oct-10 21:33N 31°56' E 120°13'1211.7
2014-Oct-10 20:34N 32°02' E 120°25'9 9.3
2014-Oct-10 19:33N 32°01' E 120°36'1111.1
2014-Oct-10 18:34N 32°00' E 120°49'1312.6
2014-Oct-10 17:33N 31°49' E 120°55'1211.5
2014-Oct-10 16:32N 31°43' E 121°07'1313.1
2014-Oct-10 15:33N 31°35' E 121°18'1211.9
2014-Oct-10 14:33N 31°27' E 121°29'1010.4
2014-Oct-10 13:33N 31°21' E 121°39'9 9.2
2014-Oct-10 12:33N 31°17' E 121°49'  
Track history (hours):
 
Tides and Currents Weather Stations Pressure Air Temp Water Temp Dewpoint Dewpoint Depression Visibility Wind Speed Wind Dir Waves Ship Positions

Shun Cheng

Last reported at 2014-Oct-19 18:12 UTC. Time now 2014-Oct-22 01:34 UTC.
Position N 35°03' E 139°37'.

Length 128 m; draft 6.8 m.

Type: Cargo ship. MMSI: 412949000.

Date/timePositionNaut miles runAvg speedWind from/ knotsBaromVisibWave heightAir tempDewpointWater temp
2014-Oct-19 18:12N 35°03' E 139°37'914.2
2014-Oct-19 17:33N 35°10' E 139°45'1212.3
2014-Oct-19 16:33N 35°22' E 139°42'1212.3
2014-Oct-19 15:33N 35°32' E 139°51'7 6.8
2014-Oct-19 14:33N 35°37' E 139°46'0 0.0
2014-Oct-19 13:23N 35°37' E 139°46'0 0.0
2014-Oct-19 12:26N 35°37' E 139°46'0 0.0
2014-Oct-19 11:10N 35°37' E 139°46'0 0.0
2014-Oct-19 10:22N 35°37' E 139°46'0 0.0
2014-Oct-19 09:28N 35°37' E 139°46'0 0.0
2014-Oct-19 08:31N 35°37' E 139°46'0 0.0
2014-Oct-19 07:19N 35°37' E 139°46'3 3.1
2014-Oct-19 06:24N 35°35' E 139°48'8 9.2
2014-Oct-19 05:33N 35°28' E 139°50'8 7.5
2014-Oct-19 04:31N 35°27' E 139°40'0 0.0
2014-Oct-19 03:31N 35°27' E 139°40'0 0.0
2014-Oct-19 02:31N 35°27' E 139°40'0 0.0
2014-Oct-19 01:28N 35°27' E 139°40'0 0.0
2014-Oct-19 00:31N 35°27' E 139°40'0 0.0
2014-Oct-18 23:31N 35°27' E 139°40'2 2.3
2014-Oct-18 22:33N 35°26' E 139°43'8 8.1
2014-Oct-18 21:33N 35°18' E 139°45'9 9.2
2014-Oct-18 20:33N 35°09' E 139°46'246 6.8
2014-Oct-17 08:30N 34°03' E 134°59'1313.0
2014-Oct-17 07:31N 34°16' E 134°58'1112.0
2014-Oct-17 06:33N 34°26' E 135°06'1313.0
2014-Oct-17 05:33N 34°35' E 135°16'5 4.4
2014-Oct-17 04:30N 34°40' E 135°14'0 0.0
2014-Oct-17 03:30N 34°40' E 135°14'0 0.0
2014-Oct-17 02:30N 34°40' E 135°14'0 0.0
2014-Oct-17 01:30N 34°40' E 135°14'0 0.0
2014-Oct-17 00:30N 34°40' E 135°14'0 0.0
2014-Oct-16 23:23N 34°40' E 135°14'0 0.3
2014-Oct-16 22:33N 34°40' E 135°14'3 2.4
2014-Oct-16 21:28N 34°37' E 135°15'0 0.0
2014-Oct-16 20:31N 34°37' E 135°15'0 0.0
2014-Oct-16 19:31N 34°37' E 135°15'0 0.1
2014-Oct-16 18:28N 34°37' E 135°15'0 0.0
2014-Oct-16 17:28N 34°37' E 135°15'3 3.4
2014-Oct-16 16:33N 34°37' E 135°19'6 5.5
2014-Oct-16 15:30N 34°39' E 135°26'0 0.0
2014-Oct-16 14:24N 34°39' E 135°26'0 0.0
2014-Oct-16 13:33N 34°39' E 135°26'3 3.2
2014-Oct-16 12:33N 34°38' E 135°22'1211.6
2014-Oct-16 11:33N 34°30' E 135°12'1312.5
2014-Oct-16 10:31N 34°21' E 135°01'1212.2
2014-Oct-16 09:33N 34°09' E 134°59'1313.1
2014-Oct-16 08:32N 33°56' E 134°59'  
2014-Oct-14 00:32N 31°20' E 121°42'1111.6
2014-Oct-13 23:33N 31°25' E 121°30'1212.1
2014-Oct-13 22:33N 31°33' E 121°20'1413.7
2014-Oct-13 21:32N 31°42' E 121°08'1010.7
2014-Oct-13 20:34N 31°47' E 120°57'1211.9
2014-Oct-13 19:33N 31°58' E 120°51'0 0.2
2014-Oct-13 18:33N 31°58' E 120°52'0 0.0
2014-Oct-13 17:33N 31°58' E 120°52'0 0.0
2014-Oct-13 16:24N 31°58' E 120°52'0 0.0
2014-Oct-13 15:33N 31°58' E 120°52'0 0.0
2014-Oct-13 14:30N 31°58' E 120°52'0 0.0
2014-Oct-13 13:33N 31°58' E 120°52'0 0.0
2014-Oct-13 12:15N 31°58' E 120°52'0 0.0
2014-Oct-13 11:32N 31°58' E 120°52'0 0.1
2014-Oct-13 10:32N 31°58' E 120°52'3 2.9
2014-Oct-13 09:32N 31°55' E 120°53'0 0.1
2014-Oct-13 08:32N 31°55' E 120°53'0 0.1
2014-Oct-13 07:24N 31°55' E 120°53'0 0.1
2014-Oct-13 06:33N 31°55' E 120°53'4 4.1
2014-Oct-13 05:33N 31°59' E 120°50'1111.1
2014-Oct-13 04:33N 31°60' E 120°37'9 8.6
2014-Oct-13 03:33N 31°60' E 120°27'2 2.4
2014-Oct-13 02:32N 31°58' E 120°25'0 0.0
2014-Oct-13 01:32N 31°58' E 120°25'0 0.0
2014-Oct-13 00:32N 31°58' E 120°25'0 0.0
2014-Oct-12 23:32N 31°58' E 120°25'0 0.0
2014-Oct-12 22:32N 31°58' E 120°25'0 0.0
2014-Oct-12 21:32N 31°58' E 120°25'0 0.0
2014-Oct-12 20:31N 31°58' E 120°25'0 0.0
2014-Oct-12 19:31N 31°58' E 120°25'0 0.0
2014-Oct-12 18:31N 31°58' E 120°25'0 0.0
2014-Oct-12 17:31N 31°58' E 120°25'0 0.0
2014-Oct-12 16:31N 31°58' E 120°25'0 0.0
2014-Oct-12 15:31N 31°58' E 120°25'0 0.0
2014-Oct-12 14:31N 31°58' E 120°25'0 0.0
2014-Oct-12 13:31N 31°58' E 120°25'0 0.0
2014-Oct-12 12:32N 31°58' E 120°25'0 0.2
2014-Oct-12 11:33N 31°58' E 120°25'8 7.7
2014-Oct-12 10:33N 31°57' E 120°16'10 9.7
2014-Oct-12 09:33N 31°57' E 120°04'1211.6
2014-Oct-12 08:33N 32°06' E 119°55'11 0.4
2014-Oct-11 00:28N 32°16' E 119°52'1010.6
2014-Oct-10 23:33N 32°07' E 119°55'9 9.0
2014-Oct-10 22:33N 31°59' E 119°60'1211.9
2014-Oct-10 21:33N 31°56' E 120°13'1211.7
2014-Oct-10 20:34N 32°02' E 120°25'9 9.3
2014-Oct-10 19:33N 32°01' E 120°36'1111.1
2014-Oct-10 18:34N 32°00' E 120°49'1312.6
2014-Oct-10 17:33N 31°49' E 120°55'1211.5
2014-Oct-10 16:32N 31°43' E 121°07'1313.1
2014-Oct-10 15:33N 31°35' E 121°18'1211.9
2014-Oct-10 14:33N 31°27' E 121°29'1010.4
2014-Oct-10 13:33N 31°21' E 121°39'9 9.2
2014-Oct-10 12:33N 31°17' E 121°49'  

Dump ship's entire track history